Location: Lhota
(50.0887°N, 14.0116°E)
Time: 00:18:51
(UTC+00:00)

Cosmos 1733 - Pass Details

Date: 19 May 2025
Orbit: 374 x 380 km, 82.5° (Epoch: 22 June)

Event Time Altitude Azimuth Distance (km) Brightness Sun altitude
Rises 20:31:58 0° 345° (NNW) 2,314 8.0 -12.6°
Maximum altitude 20:37:03 47° 264° (W) 536 3.5 -13.1°
Enters shadow 20:39:19 16° 194° (SSW) 1,132 4.5 -13.3°
